Jaffrey, NH

12:04 PM EDT on March 24, 2017 (GMT -0400)
Jaffrey Airport-Silver Ranch

Weather History for KAFN - October, 2012

Change the Weather History Date:

Monday, October 15, 2012

  Actual Average Record
Temperature  
Mean Temperature 64 °F -  
Max Temperature 70 °F 55 °F 73 °F (2014)
Min Temperature 59 °F 35 °F 24 °F (2002)
Growing Degree Days 14 (Base 50)    
Moisture  
Dew Point 56 °F    
Average Humidity 77    
Maximum Humidity 88    
Minimum Humidity 63    
Precipitation  
Precipitation 0.54 in - - ()
Sea Level Pressure  
Sea Level Pressure 29.72 in    
Wind  
Wind Speed 9 mph (SSW)    
Max Wind Speed 16 mph    
Max Gust Speed 25 mph    
Visibility 9 miles    
Events Rain    
Averages and records for this station are not official NWS values.
T = Trace of Precipitation, MM = Missing Value Source: NWS Daily Summary

Daily Weather History Graph

Daily Weather History Graph

Search for Another Location

Airport or City:

Trip Planner

Search our weather history database for the weather conditions in past years. The results will help you decide how hot, cold, wet, or windy it might be!

Date:

Astronomy

Oct. 15, 2012 Rise Set
Actual Time 7:01 AM EDT 6:04 PM EDT
Civil Twilight 6:33 AM EDT 6:33 PM EDT
Nautical Twilight 6:00 AM EDT 7:06 PM EDT
Astronomical Twilight 5:27 AM EDT 7:38 PM EDT
Moon 7:10 AM EDT (10/15) 6:00 PM EDT (10/15)
Length of Visible Light 11h 59m
Length of Day
11h 02m
New Moon, 0% of the Moon is Illuminated
Oct 15
New Moon
Oct 21
First Quarter
Oct 29
Full
Nov 6
Last Quarter
Nov 13
New

Hourly Weather History & Observations

Time (EDT) Temp. Dew Point Humidity Pressure Visibility Wind Dir Wind Speed Gust Speed Precip Events Conditions
12:52 AM 59.0 °F 52.0 °F 78% 29.91 in 10.0 mi South 9.2 mph - N/A   Clear
1:42 AM 60.8 °F 51.8 °F 72% 29.89 in 10.0 mi SSW 11.5 mph 21.9 mph N/A   Mostly Cloudy
1:52 AM 60.1 °F 52.0 °F 75% 29.91 in 10.0 mi SW 8.1 mph 21.9 mph N/A   Mostly Cloudy
2:52 AM 60.1 °F 53.1 °F 78% 29.89 in 10.0 mi SSW 8.1 mph 20.7 mph N/A   Mostly Cloudy
3:52 AM 61.0 °F 54.0 °F 78% 29.86 in 10.0 mi SSW 11.5 mph 17.3 mph N/A   Overcast
4:52 AM 61.0 °F 54.0 °F 78% 29.84 in 10.0 mi SSW 10.4 mph 25.3 mph N/A   Mostly Cloudy
5:13 AM 60.8 °F 53.6 °F 77% 29.82 in 10.0 mi SSW 11.5 mph 24.2 mph N/A   Mostly Cloudy
5:24 AM 60.8 °F 53.6 °F 77% 29.82 in 10.0 mi SSW 10.4 mph 23.0 mph N/A   Scattered Clouds
5:52 AM 61.0 °F 54.0 °F 78% 29.82 in 10.0 mi SSW 12.7 mph 18.4 mph N/A   Scattered Clouds
5:59 AM 62.6 °F 53.6 °F 72% 29.80 in 10.0 mi SSW 13.8 mph 24.2 mph N/A   Mostly Cloudy
6:43 AM 62.6 °F 55.4 °F 77% 29.78 in 10.0 mi SSW 13.8 mph 21.9 mph N/A   Overcast
6:52 AM 62.1 °F 55.0 °F 78% 29.78 in 10.0 mi SSW 10.4 mph 21.9 mph N/A   Overcast
7:08 AM 62.6 °F 55.4 °F 77% 29.77 in 10.0 mi SSW 16.1 mph 24.2 mph N/A   Overcast
7:38 AM 62.6 °F 55.4 °F 77% 29.77 in 10.0 mi SW 9.2 mph 23.0 mph N/A   Overcast
7:59 AM 64.4 °F 55.4 °F 73% 29.77 in 10.0 mi SSW 16.1 mph 23.0 mph N/A   Overcast
8:52 AM 64.0 °F 55.0 °F 73% 29.78 in 10.0 mi SSW 12.7 mph 23.0 mph N/A   Overcast
9:52 AM 64.9 °F 55.9 °F 73% 29.77 in 10.0 mi SSW 12.7 mph 21.9 mph N/A   Overcast
10:52 AM 66.0 °F 55.9 °F 70% 29.76 in 10.0 mi SSW 12.7 mph 23.0 mph N/A   Overcast
11:52 AM 68.0 °F 55.9 °F 65% 29.75 in 10.0 mi SSW 15.0 mph 21.9 mph N/A   Overcast
12:52 PM 68.0 °F 55.9 °F 65% 29.73 in 10.0 mi SSW 11.5 mph 24.2 mph N/A   Mostly Cloudy
2:08 PM 69.8 °F 57.2 °F 64% 29.69 in 10.0 mi SSW 12.7 mph 21.9 mph N/A   Mostly Cloudy
2:52 PM 70.0 °F 57.0 °F 63% 29.69 in 10.0 mi SSW 13.8 mph 25.3 mph N/A   Mostly Cloudy
3:37 PM 69.8 °F 57.2 °F 64% 29.67 in 10.0 mi SSW 11.5 mph 19.6 mph N/A   Overcast
3:52 PM 69.1 °F 57.0 °F 65% 29.67 in 10.0 mi SSW 9.2 mph 19.6 mph 0.00 in Rain Light Rain
4:52 PM 68.0 °F 57.0 °F 68% 29.65 in 10.0 mi South 8.1 mph - 0.00 in   Mostly Cloudy
5:23 PM 66.2 °F 57.2 °F 73% 29.65 in 10.0 mi SSW 5.8 mph - 0.00 in Rain Light Rain
5:31 PM 66.2 °F 57.2 °F 73% 29.65 in 10.0 mi South 4.6 mph - 0.00 in   Overcast
5:52 PM 66.0 °F 57.9 °F 75% 29.65 in 8.0 mi Calm Calm - 0.01 in Rain Rain
6:33 PM 64.4 °F 59.0 °F 83% 29.63 in 6.0 mi South 4.6 mph - 0.04 in Rain Rain
6:52 PM 64.0 °F 59.0 °F 84% 29.64 in 10.0 mi SSW 3.5 mph - 0.05 in Rain Light Rain
7:11 PM 64.4 °F 59.0 °F 83% 29.65 in 3.0 mi WSW 10.4 mph 16.1 mph 0.07 in Rain Heavy Rain
7:13 PM 62.6 °F 57.2 °F 82% 29.65 in 1.8 mi SW 10.4 mph 16.1 mph 0.16 in Rain Heavy Rain
7:21 PM 62.6 °F 55.4 °F 77% 29.64 in 1.2 mi SSW 6.9 mph - 0.26 in Rain Heavy Rain
7:24 PM 62.6 °F 55.4 °F 77% 29.65 in 2.0 mi SSW 8.1 mph - 0.28 in Rain Heavy Rain
7:43 PM 60.8 °F 57.2 °F 88% 29.66 in 4.0 mi South 5.8 mph - 0.35 in Rain Rain
7:52 PM 61.0 °F 57.0 °F 87% 29.66 in 6.0 mi South 4.6 mph - 0.36 in Rain Light Rain
8:03 PM 60.8 °F 57.2 °F 88% 29.66 in 6.0 mi SSW 8.1 mph - 0.02 in Rain Light Rain
8:28 PM 60.8 °F 55.4 °F 82% 29.65 in 5.0 mi South 5.8 mph - 0.10 in Rain Rain
8:52 PM 61.0 °F 55.9 °F 83% 29.64 in 10.0 mi South 5.8 mph - 0.11 in Rain Light Rain
9:06 PM 60.8 °F 55.4 °F 82% 29.64 in 10.0 mi South 6.9 mph - 0.01 in Rain Light Rain
9:20 PM 60.8 °F 55.4 °F 82% 29.65 in 10.0 mi South 6.9 mph - 0.01 in Rain Light Rain
9:52 PM 60.1 °F 55.9 °F 86% 29.66 in 9.0 mi SSW 4.6 mph - 0.01 in Rain Light Rain
10:29 PM 60.8 °F 55.4 °F 82% 29.63 in 10.0 mi SSW 3.5 mph - 0.00 in   Overcast
10:49 PM 60.8 °F 55.4 °F 82% 29.63 in 10.0 mi WSW 3.5 mph - 0.00 in   Overcast
10:52 PM 60.1 °F 55.9 °F 86% 29.64 in 10.0 mi SW 3.5 mph - 0.00 in   Overcast
11:11 PM 60.8 °F 55.4 °F 82% 29.64 in 10.0 mi SSW 4.6 mph - N/A   Overcast
11:29 PM 60.8 °F 55.4 °F 82% 29.64 in 10.0 mi SSW 4.6 mph - N/A   Overcast
11:40 PM 60.8 °F 55.4 °F 82% 29.64 in 10.0 mi Calm Calm - N/A   Overcast